Location: Wawayanda State Park
(41.1833°N, 74.4333°W)
Time: 21:31:36
(UTC-04:00)

Daily predictions for brighter satellites

Satellite Brightness Start Highest point End
(mag) Time Altitude Azimuth Time Altitude Azimuth Time Altitude Azimuth
CENTAUR R/B 2.8 20:04:50 10° SW 20:10:50 79° NW 20:17:43 10° NNE
Gblst 52 Del rocket 4.3 20:06:32 10° NW 20:12:33 86° SW 20:18:04 10° SE
ERBS 3.9 20:13:02 10° NNW 20:15:57 24° NE 20:18:50 10° E
Cosmos 1455 2.4 20:13:20 10° SSE 20:16:58 46° E 20:20:37 10° NNE
Cosmos 1869 4.2 20:17:04 10° SSE 20:20:26 27° E 20:23:48 10° NNE
Cosmos 1697 Rocket 3.1 20:16:04 10° SSW 20:21:41 69° WNW 20:27:20 10° NNE
SJ-6B 4.5 20:20:14 10° SSW 20:23:52 37° W 20:27:37 10° NNW
ATLAS CENTAUR R/B 2.6 20:23:23 10° WNW 20:25:46 41° SW 20:30:58 10° SSE
Cosmos 1400 Rocket 2.9 20:23:19 10° NNW 20:27:13 81° W 20:31:08 10° S
Cosmos 2297 Rocket 4.0 20:24:35 10° NW 20:29:34 32° WSW 20:34:32 10° SSW
OTV 4 2.5 20:27:44 10° WSW 20:29:45 18° SSW 20:31:46 10° SSE
Nadezhda 4 Rocket 4.1 20:23:36 10° N 20:29:53 89° W 20:36:12 10° S
ALOS 3.8 20:27:49 10° SSW 20:32:10 39° W 20:36:34 10° NNW
DELTA 2 R/B (1) 4.1 20:27:33 10° W 20:32:58 50° SSW 20:37:59 12° SE
Cosmos 1892 2.9 20:30:03 10° NNW 20:33:51 73° W 20:37:37 10° S
Cosmos 1634 Rocket 4.1 20:30:36 10° SSE 20:36:42 57° E 20:42:54 10° NNE
Intercosmos 25 Rocket 4.0 20:35:40 10° SSE 20:38:21 26° E 20:41:26 10° NNE
Cosmos 1092 Rocket 4.0 20:32:13 10° N 20:38:36 77° E 20:44:56 10° SSE
Cosmos 2263 Rocket 3.5 20:34:18 10° N 20:38:49 25° NE 20:42:39 13° ESE
Meteor 2-3 Rocket 4.3 20:33:29 10° NNW 20:39:07 62° W 20:44:46 10° S
Cosmos 1315 Rocket 2.8 20:35:28 10° N 20:39:34 73° E 20:43:35 10° SSE
H-2A R/B 4.1 20:37:18 10° S 20:41:01 42° W 20:44:43 10° NNW
Cosmos 2322 Rocket 2.7 20:37:17 10° S 20:42:22 37° ESE 20:47:29 10° NE
USA 186 1.4 20:40:21 10° S 20:42:58 78° WSW 20:45:49 10° NNW
Cosmos 1707 Rocket 3.6 20:42:41 10° S 20:47:08 90° W 20:51:35 10° N
YAOGAN 6 3.9 20:45:47 16° ESE 20:47:38 24° ENE 20:50:38 10° NNE
Spot 2 Rocket 4.2 20:43:13 10° S 20:48:14 57° W 20:53:15 10° NNW
Abrixas rocket 2.4 20:45:04 10° WSW 20:48:20 71° NNW 20:51:37 10° ENE
USA 267 4.5 20:44:00 10° NE 20:50:06 43° NNW 20:56:10 10° W
Cosmos 2360 Rocket 3.5 20:52:40 16° ESE 20:53:48 17° E 20:57:23 10° ENE
Meteor 2-20 Rocket 4.5 20:47:57 10° N 20:54:00 62° E 21:00:03 10° SSE
Cosmos 1980 Rocket 2.8 20:48:34 10° SW 20:54:11 63° WNW 20:59:52 10° NNE
Cosmos 1733 Rocket 3.8 20:50:37 10° N 20:54:44 35° ENE 20:57:20 19° SE
Helios 1B rocket 2.3 20:54:32 10° NNE 20:58:40 86° ESE 21:02:45 10° SSW
Cosmos 1862 Rocket 4.2 20:56:58 15° SSE 21:00:08 35° E 21:04:13 10° NNE
Meteor 1-29 2.8 20:57:08 10° NNE 21:00:38 74° ESE 21:04:04 10° S
Lacrosse 4 Rocket 2.0 20:56:45 10° NNW 21:00:54 45° ENE 21:03:17 23° ESE
Cosmos 1825 2.1 21:02:17 10° N 21:06:04 63° E 21:08:24 22° SSE
Cosmos 1862 3.7 21:02:41 10° N 21:06:32 43° ENE 21:08:22 26° SE
Envisat 3.0 21:02:58 10° SSE 21:08:03 86° WSW 21:13:10 10° NNW
SL-16 R/B 2.2 21:03:37 10° S 21:09:11 62° ESE 21:14:47 10° NNE
Cosmos 1627 Rocket 4.5 21:05:39 10° N 21:11:54 90° ENE 21:18:03 10° S
Cosmos 1939 Rocket 2.8 21:09:41 16° SSE 21:12:52 89° WSW 21:16:55 10° NNW
Cosmos 2242 Rocket 3.5 21:08:56 10° S 21:13:28 84° E 21:17:58 10° N
Milstar 3 3.8 21:07:46 10° WSW 21:14:14 29° S 21:17:22 20° SSE
SJ-11-01 4.3 21:10:58 13° S 21:15:07 83° WSW 21:19:49 10° NNW
SPOT 5 3.9 21:15:36 24° E 21:17:13 29° ENE 21:21:16 10° N
CZ-4B DEB 3.3 21:15:52 18° S 21:17:51 52° W 21:20:51 10° NNW
Cosmos 2279 Rocket 3.9 21:12:59 10° S 21:19:11 72° E 21:25:24 10° NNE
ATLAS 5 CENTAUR R/B 3.3 21:15:38 10° NNW 21:21:03 35° NE 21:24:21 22° E
USA 234 3.4 21:20:01 21° SE 21:24:32 69° SW 21:31:06 10° NW
OAO 3 Rocket 3.8 21:23:31 10° WSW 21:28:06 40° S 21:29:18 34° SE
Resurs 01 Rocket 4.3 21:26:26 10° SW 21:29:24 17° W 21:32:23 10° NW
Helios 1A 4.5 21:27:26 10° SSW 21:31:17 34° W 21:35:12 10° NNW
ARGOS 3.7 21:30:20 31° ESE 21:32:11 41° ENE 21:37:10 10° N
Atlas Centaur 2 3.8 21:26:26 10° SW 21:32:39 29° SSE 21:34:14 27° SE
Cosmos 1428 Rocket 4.4 21:31:00 10° N 21:37:09 88° E 21:41:11 23° S
MOS 1-B Rocket 4.4 21:35:42 31° ESE 21:37:58 44° ENE 21:43:19 10° N
Cosmos 2180 Rocket 4.5 21:32:41 10° S 21:39:04 84° E 21:45:28 10° N
Cosmos 1844 Rocket 4.3 21:38:39 10° N 21:42:31 19° NE 21:44:04 17° ENE
ERS-1 Rocket 3.0 21:42:12 30° S 21:44:42 81° WSW 21:49:45 10° NNW
Cosmos 1408 4.2 21:44:40 10° NNW 21:48:01 33° W 21:50:06 18° SW
ERBS 3.5 21:49:30 10° WNW 21:52:41 35° SW 21:52:42 35° SW
Sich 1 Rocket 3.5 21:48:59 10° N 21:53:26 68° E 21:53:57 61° ESE
Meteor 1-14 Rocket 4.3 21:52:48 10° N 21:58:24 59° ENE 21:59:37 48° SE
SeaSat 1 2.4 22:00:11 57° SE 22:01:12 79° ENE 22:06:09 10° NNW
H-2A R/B 3.4 22:07:13 27° NE 22:07:13 27° NE 22:10:12 10° N
USA 229 DEB 3.8 22:04:47 40° SSE 22:06:41 51° ESE 22:13:21 10° NE
USA 229 3.8 22:05:03 41° SSE 22:06:48 51° ESE 22:13:27 10° NE
MetOp-A 4.3 22:08:21 42° S 22:10:08 69° WSW 22:15:30 10° NNW
USA 245 4.2 22:08:35 48° SSE 22:10:22 90° ENE 22:15:44 10° NNW
Cosmos 1908 Rocket 3.5 22:06:29 10° N 22:10:49 77° W 22:11:04 74° SW
Landsat 7 4.4 22:11:17 42° ENE 22:11:17 42° ENE 22:15:32 10° N
Meteor 1-25 Rocket 4.1 22:12:26 10° N 22:18:00 63° ENE 22:18:23 61° E
COSMOS 2428 3.6 22:23:05 33° ENE 22:23:05 33° ENE 22:26:42 10° NE
Cosmos 1867 3.4 22:16:47 10° NNW 22:22:16 75° ENE 22:22:40 71° E
Cosmos 2263 Rocket 2.7 22:17:39 10° NW 22:23:01 50° WSW 22:24:23 41° SSW
H-2A R/B 1.9 22:24:03 73° ENE 22:24:04 73° ENE 22:29:02 10° N
Cosmos 1782 Rocket 3.7 22:20:21 10° N 22:24:09 67° N 22:24:09 67° N
Okean 2 Rocket 3.6 22:20:32 10° N 22:24:13 51° NNE 22:24:13 51° NNE
Abrixas rocket 4.4 22:22:44 10° WNW 22:25:18 24° NNW 22:25:18 24° NNW
Terra 2.6 22:26:53 39° NE 22:26:53 39° NE 22:30:39 10° N
Cosmos 2322 Rocket 3.9 22:21:26 10° WSW 22:26:25 32° WNW 22:31:26 10° N
Cosmos 2360 Rocket 2.5 22:34:16 29° SW 22:37:11 65° WNW 22:42:50 10° NNE
SL-08 RB Rocket 4.1 22:37:52 57° W 22:37:52 57° W 22:42:14 10° NNW
Lacrosse 4 Rocket 3.7 22:36:22 10° WNW 22:39:16 18° WSW 22:39:39 17° WSW
Meteor 1-20 Rocket 4.0 22:34:36 10° N 22:40:11 86° E 22:40:13 86° E
Cosmos 1844 4.5 22:36:40 10° N 22:41:50 39° NE 22:41:50 39° NE
Cosmos 2322 3.9 22:40:41 42° SW 22:42:35 69° WNW 22:48:17 10° NNE
Cosmos 968 Rocket 4.0 22:41:17 10° NNW 22:46:18 51° WSW 22:46:23 51° WSW
Meteor 2-6 Rocket 4.5 22:49:28 60° ENE 22:49:28 60° ENE 22:54:40 10° NNE
Geosat 4.3 22:43:58 10° NNE 22:47:59 58° NNE 22:47:59 58° NNE
ASTEX 1 4.0 22:50:52 50° NNE 22:50:52 50° NNE 22:54:43 10° N
Okean 1-7 4.1 22:55:18 43° NW 22:55:18 43° NW 22:58:49 10° N
SPOT 5 4.2 22:54:50 30° WSW 22:55:11 31° W 22:59:25 10° NW
CZ-4C R/B 3.9 22:51:21 10° NNW 22:57:39 34° NE 22:59:44 30° ENE
Cosmos 2333 Rocket 3.8 23:04:54 25° NE 23:04:54 25° NE 23:07:25 10° NE
ATLAS 5 CENTAUR R/B 2.9 23:00:08 10° NW 23:05:54 49° WSW 23:05:54 49° WSW
Cosmos 2237 Rocket 4.0 23:14:50 20° NE 23:14:50 20° NE 23:16:44 10° NE
Cosmos 2278 Rocket 3.2 23:09:47 10° N 23:14:18 38° NE 23:14:18 38° NE
Meteor 1-27 Rocket 4.4 23:19:29 49° NNE 23:19:29 49° NNE 23:23:35 10° NNE
Atlas Centaur 2 4.4 23:14:15 10° WSW 23:16:54 22° SW 23:16:54 22° SW
Cosmos 1553 Rocket 4.1 23:23:20 72° N 23:23:20 72° N 23:28:53 10° N
Cosmos 1844 Rocket 3.3 23:21:25 10° NNW 23:25:44 53° NW 23:25:44 53° NW
Meteor 1-11 Rocket 4.4 23:33:58 10° NNW 23:38:03 50° NNW 23:38:03 50° NNW
H-2A R/B 4.5 23:44:20 18° WNW 23:44:20 18° WNW 23:45:58 10° NW
Cosmos 2219 Rocket 3.1 23:45:20 44° N 23:45:20 44° N 23:49:13 10° NNE
S3M 4.5 23:51:34 54° NW 23:51:34 54° NW 23:56:57 10° N
